Date,TemperatureHighF,TemperatureAvgF,TemperatureLowF,DewpointHighF,DewpointAvgF,DewpointLowF,HumidityHigh,HumidityAvg,HumidityLow,PressureMaxIn,PressureMinIn,WindSpeedMaxMPH,WindSpeedAvgMPH,GustSpeedMaxMPH,PrecipitationSumIn
2013-5-1,72,64,59,61,58,55,95,81,61,30.24,30.15,2,1,11,0.00
2013-5-2,70,65,62,61,60,57,93,82,69,30.27,30.17,3,1,8,0.00
2013-5-3,68,61,57,61,57,54,95,87,74,30.29,30.22,3,1,8,0.04
2013-5-4,61,58,54,58,53,47,97,83,68,30.36,30.26,4,1,11,0.19
2013-5-5,75,61,55,66,59,54,99,92,63,30.39,30.24,4,1,9,0.89
2013-5-6,72,60,50,56,50,45,98,73,39,30.38,30.23,6,1,8,0.00
2013-5-7,73,61,50,56,50,47,94,72,41,30.42,30.24,6,1,9,0.01
2013-5-8,82,66,51,57,52,49,94,66,35,30.41,30.14,4,1,10,0.00
2013-5-9,89,71,56,61,57,48,93,64,26,30.29,30.13,4,0,6,0.00
2013-5-10,88,74,60,63,59,55,93,65,33,30.22,30.07,4,1,11,0.00
2013-5-11,83,74,64,65,62,59,86,69,51,30.14,30.05,7,1,8,0.00
2013-5-12,81,71,59,64,51,31,89,55,24,30.12,30.04,7,1,11,0.00
2013-5-13,75,61,46,44,38,26,83,47,17,30.31,30.11,5,1,8,0.00
2013-5-14,80,64,46,47,38,27,78,44,16,30.51,30.23,4,1,7,0.00
2013-5-15,92,75,58,58,53,45,70,49,29,30.39,29.93,5,1,8,0.00
2013-5-16,85,75,65,64,60,57,85,62,45,30.21,29.93,4,0,7,0.00
2013-5-17,91,75,63,65,61,53,90,66,29,30.40,30.15,4,0,6,0.00
2013-5-18,81,73,67,67,65,60,90,75,58,30.42,30.15,3,1,7,0.00
2013-5-19,82,73,68,69,67,65,94,83,62,30.42,30.15,3,1,5,0.00
2013-5-20,87,76,69,70,68,65,96,77,51,30.42,30.15,3,0,6,0.00
2013-5-21,91,73,66,72,69,65,98,88,48,30.42,30.14,3,0,5,0.01
2013-5-22,88,71,64,71,66,64,99,87,47,30.42,30.16,4,0,6,0.00
2013-5-23,86,75,68,75,66,61,96,76,50,30.42,30.14,4,1,8,0.00
2013-5-24,87,73,60,61,48,24,87,47,12,30.43,30.14,7,1,14,0.00
2013-5-25,83,66,48,50,42,28,84,48,14,30.42,30.16,4,1,5,0.00
2013-5-26,88,70,56,55,50,41,87,54,20,30.42,30.14,3,0,6,0.00
2013-5-27,92,75,60,63,57,52,86,56,27,30.42,30.14,5,1,11,0.00
2013-5-28,89,75,63,66,62,56,93,65,39,30.42,30.14,5,1,11,0.00
2013-5-29,90,76,61,67,62,59,96,66,36,30.42,30.14,4,1,6,0.00
2013-5-30,94,77,63,70,64,60,96,69,34,30.42,30.14,4,1,7,0.00
2013-5-31,93,79,69,71,68,62,97,72,37,30.42,30.14,4,1,10,0.01